Regional Weather Roundup
Issued by NWS

Home | Current Version | Previous Version | Text Only | Print | Product List | Glossary Off
Versions: 1 2 3 4 5 6 7 8 9 10 11 12 13 14 15 16 17 18 19 20 21 22 23 24 25 26 27

000
ASUS45 KCYS 310210
RWRWY

WYOMING REGIONAL WEATHER ROUNDUP
NATIONAL WEATHER SERVICE CHEYENNE WY
800 PM MDT THU OCT 30 2014

NOTE:  "FAIR" INDICATES FEW OR NO CLOUDS BELOW 12,000 FEET
WITH NO SIGNIFICANT WEATHER AND/OR OBSTRUCTIONS TO VISIBILITY.

WYZ001-310300-
YELLOWSTONE NATIONAL PARK

CITY           SKY/WX    TMP DP  RH WIND       PRES   REMARKS
LK YELLOWSTONE   N/A     31  28  89 CALM      30.35
W YELLOWSTONE  NOT AVBL

$$
WYZ002>013-054>058-071-098>099-310300-
NORTHERN WYOMING

CITY           SKY/WX    TMP DP  RH WIND       PRES   REMARKS
JACKSON        CLEAR     39  30  70 CALM      30.27
CODY           PTCLDY    43  25  49 CALM      30.26
GREYBULL       CLEAR     49  26  41 E6        30.24S
WORLAND        CLEAR     40  24  53 S3        30.24S
SHERIDAN       PTCLDY    44  27  51 S5        30.29F
BUFFALO        CLEAR     46  24  42 S7        30.34S
GILLETTE       PTCLDY    35  27  72 CALM      30.34S
HULETT         FAIR      37  32  81 CALM      30.37
NEWCASTLE      FAIR      39  30  70 SE10      30.37R WCI  32

$$
WYZ014>020-022>026-101>103-310300-
CENTRAL WYOMING

CITY           SKY/WX    TMP DP  RH WIND       PRES   REMARKS
BIG PINEY      MOCLDY    43  24  47 CALM      30.33R
PINEDALE       MOCLDY    39  27  60 CALM      30.34
DUBOIS         FAIR      39  27  60 CALM      30.34R
LANDER         PTCLDY    46  28  49 W12       30.29R
RIVERTON       MOCLDY    43  22  43 NW8       30.30R
CASPER         CLEAR     45  21  38 E8        30.32S
DOUGLAS        CLEAR     40  25  55 SE6       30.36S

$$
WYZ021-027>030-104>119-310300-
SOUTHERN WYOMING

CITY           SKY/WX    TMP DP  RH WIND       PRES   REMARKS
EVANSTON       CLEAR     50  26  39 E10       30.27F
KEMMERER       PTCLDY    48  27  43 NE3       30.31S
FORT BRIDGER   FAIR      47  26  43 E8        30.32S
ROCK SPRINGS   CLEAR     49  26  41 SE9       30.31S
RAWLINS        PTCLDY    36  17  46 CALM      30.34S
SARATOGA       FAIR      41  21  45 S7        30.35F
LARAMIE        CLEAR     41  24  51 SE12      30.39R
CHEYENNE       CLEAR     44  26  49 CALM      30.40R
TORRINGTON     CLEAR     45  32  60 E10       30.37R
PINE BLUFFS    FAIR      41  28  60 CALM      30.39S

$$



USA.gov is the U.S. government's official web portal to all federal, state and local government web resources and services.